Weather Roundup
Issued by NWS

Home | Current Version | Previous Version | Text Only | Print | Product List | Glossary On
Versions: 1 2 3 4 5 6 7 8 9 10 11 12 13 14 15 16 17 18 19 20 21 22 23 24 25 26 27 28 29 30 31 32 33 34 35 36 37 38 39 40 41 42 43 44 45 46 47 48 49 50
000
NZUS93 KARX 050910
HRRWXR

CURRENT HOURLY OBSERVATIONS ACROSS
MUCH OF THE UPPER MISSISSIPPI VALLEY
NATIONAL WEATHER SERVICE LA CROSSE WI
400 AM CDT WED AUG 05 2015


...SOUTHEAST MINNESOTA...


CITY           SKY/WX    TMP DP  RH WIND       PRES   REMARKS
ROCHESTER      PTCLDY    55  52  89 SW6       30.07R
ROCHESTER/MAYO FAIR      61  54  77 CALM      30.06S
WINONA         CLEAR     57  55  94 CALM      30.05S
AUSTIN         PTCLDY    55  54  94 CALM      30.05F
ALBERT LEA     MOCLDY    54  52  94 CALM      30.05F
DODGE CENTER   PTCLDY    54  52  94 CALM      30.06S
PRESTON        PTCLDY    56  51  82 SW5       30.07S
OWATONNA       PTCLDY    55  52  88 CALM      30.05S
FARIBAULT      PTCLDY    54  52  94 CALM      30.05S
$$

...ELSEWHERE IN MINNESOTA...


CITY           SKY/WX    TMP DP  RH WIND       PRES   REMARKS
MINNEAPOLIS    CLEAR     64  57  78 NE3       30.05R
INTNL FALLS    CLEAR     40  38  93 CALM      30.09S
DULUTH         MOCLDY    53  49  86 CALM      30.09R
RED WING       CLEAR     57  55  94 N3        30.04S
REDWOOD FALLS  MOCLDY    58  54  86 CALM      30.04S
MANKATO        PTCLDY    61  52  72 CALM      30.05S
WORTHINGTON    MOCLDY    57  52  82 CALM      30.05S
FAIRMONT       MOCLDY    55  48  76 CALM      30.04F
$$

...SOUTHWEST WISCONSIN...


CITY           SKY/WX    TMP DP  RH WIND       PRES   REMARKS
LA CROSSE      CLEAR     60  57  89 SE3       30.04S
PRAIRIE DU CHI PTCLDY    55  53  92 CALM      30.05R
BOSCOBEL       FOG       52  51  97 CALM      30.06R VSB 1
LONE ROCK      CLEAR     53  50  89 CALM      30.05F
PLATTEVILLE    CLEAR     59  55  85 N5        30.05S
FORT MC COY    CLEAR     49  48  95 CALM      30.06S
CAMP DOUGLAS   CLEAR     51  51 100 NE1       30.04R
VIROQUA        FAIR      57  57  99 W5        30.06S
WIS DELLS      CLEAR     55  51  89 CALM      30.05S
$$

...ELSEWHERE IN WISCONSIN...


CITY           SKY/WX    TMP DP  RH WIND       PRES   REMARKS
MILWAUKEE      MOCLDY    64  56  75 CALM      30.02F
MADISON        CLEAR     57  54  89 CALM      30.03F
GREEN BAY      CLEAR     56  55  97 N3        30.06R
EAU CLAIRE     CLEAR     55  53  93 NE3       30.05S
BLACK RVR FLS  FAIR      49  49 100 CALM      30.04S
MEDFORD        CLEAR     50  49  98 NE3       30.08S
WAUSAU         PTCLDY    56  52  86 CALM      30.06R
WIS RAPIDS     MOCLDY    57  53  86 CALM      30.06S
MARSHFIELD     CLEAR     57  51  80 NE5       30.06R
RICE LAKE      CLEAR     50  49  95 N3        30.09S
$$

...NORTHEAST IOWA...


CITY           SKY/WX    TMP DP  RH WIND       PRES   REMARKS
DECORAH        PTCLDY    54  54 100 CALM      30.05S
MASON CITY     PTCLDY    53  52  96 N3        30.06F
CHARLES CITY   PTCLDY    55  55 100 CALM      30.06S
OELWEIN        PTCLDY    55  54  94 CALM      30.06
$$

...ELSEWHERE IN IOWA...


CITY           SKY/WX    TMP DP  RH WIND       PRES   REMARKS
DES MOINES     MOCLDY    70  63  78 SE6       30.01R
IOWA CITY      CLEAR     66  61  84 NE3       30.03S
FORT DODGE     PTCLDY    59  55  88 CALM      30.04S
$$

...NORTHERN ILLINOIS...


CITY           SKY/WX    TMP DP  RH WIND       PRES   REMARKS
CHICAGO-OHARE  PTCLDY    63  59  87 NW3       30.03R
CHICAGO-MIDWAY MOCLDY    68  59  73 SW3       30.03R
MOLINE         CLEAR     63  60  90 CALM      30.02F
ROCKFORD       PTCLDY    58  55  90 CALM      30.06R
PEORIA         CLEAR     67  61  81 NE5       30.04S
$$

NOTE: "FAIR" INDICATES FEW OR NO CLOUDS BELOW 12,000 FEET WITH NO
SIGNIFICANT WEATHER AND/OR OBSTRUCTIONS TO VISIBILITY. WIND
SPEEDS ARE IN MILES-PER-HOUR.



USA.gov is the U.S. government's official web portal to all federal, state and local government web resources and services.